FW8496 Weather Reports


Display with metric or nautical units.
time (UTC)temp
F
wind
direction
speed
MPH
gust
MPH
rain 1hr
in
rain 24hr
in
rain mn
in
humidity
%
barometer
mb
20260510095542 60 167 1.0 3.0 0.00 0.00 0.00 28 1019.1
20260510095042 60 167 1.0 5.0 0.00 0.00 0.00 27 1019.1
20260510094550 60 167 3.0 5.0 0.00 0.00 0.00 27 1019.0
20260510094041 61 10 0.0 3.0 0.00 0.00 0.00 26 1018.9
20260510093541 61 10 1.0 3.0 0.00 0.00 0.00 26 1018.8
20260510093103 61 10 2.0 3.0 0.00 0.00 0.00 26 1018.8
20260510092540 61 10 1.0 3.0 0.00 0.00 0.00 26 1018.8
20260510092040 61 10 0.0 5.0 0.00 0.00 0.00 26 1018.6
20260510091547 61 10 1.0 8.0 0.00 0.00 0.00 26 1018.6
20260510091041 61 15 3.0 8.0 0.00 0.00 0.00 26 1018.4
20260510090539 61 352 3.0 8.0 0.00 0.00 0.00 26 1018.3
20260510090049 61 5 5.0 9.0 0.00 0.00 0.00 26 1018.2
20260510085541 61 46 5.0 9.0 0.00 0.00 0.00 26 1018.0
20260510085041 61 36 5.0 10.0 0.00 0.00 0.00 26 1018.1
20260510084550 61 30 5.0 10.0 0.00 0.00 0.00 26 1018.1
20260510084042 61 5 5.0 9.0 0.00 0.00 0.00 26 1018.1
20260510083545 61 11 5.0 11.0 0.00 0.00 0.00 26 1018.0
20260510083052 61 40 5.0 11.0 0.00 0.00 0.00 26 1018.0
20260510082541 61 35 5.0 9.0 0.00 0.00 0.00 26 1018.0
20260510082044 61 22 5.0 10.0 0.00 0.00 0.00 26 1018.0
20260510081619 61 16 5.0 10.0 0.00 0.00 0.00 26 1018.0
20260510081042 61 45 4.0 9.0 0.00 0.00 0.00 26 1017.9
20260510080541 61 34 5.0 9.0 0.00 0.00 0.00 26 1018.0
20260510080044 62 32 4.0 9.0 0.00 0.00 0.00 26 1018.0
20260510075541 61 26 4.0 9.0 0.00 0.00 0.00 26 1018.0
20260510075042 61 24 4.0 8.0 0.00 0.00 0.00 26 1018.0
20260510074553 61 23 5.0 9.0 0.00 0.00 0.00 26 1018.0
20260510074041 61 11 5.0 9.0 0.00 0.00 0.00 26 1018.0
20260510073541 61 355 5.0 10.0 0.00 0.00 0.00 26 1018.0
20260510073103 61 355 6.0 10.0 0.00 0.00 0.00 26 1018.1
20260510072545 61 13 5.0 10.0 0.00 0.00 0.00 26 1018.0
20260510072044 61 22 4.0 10.0 0.00 0.00 0.00 26 1018.0
20260510071548 62 15 4.0 11.0 0.00 0.00 0.00 26 1018.0
20260510071041 62 17 7.0 11.0 0.00 0.00 0.00 26 1018.0
20260510070541 62 18 5.0 11.0 0.00 0.00 0.00 26 1018.1
20260510070048 61 23 7.0 11.0 0.00 0.00 0.00 26 1018.0
20260510065541 61 336 7.0 11.0 0.00 0.00 0.00 26 1017.9
20260510065041 61 14 6.0 10.0 0.00 0.00 0.00 26 1017.9
20260510064559 62 15 5.0 9.0 0.00 0.00 0.00 26 1017.9
20260510064041 62 36 5.0 10.0 0.00 0.00 0.00 26 1017.8
20260510063541 62 24 5.0 10.0 0.00 0.00 0.00 26 1017.9
20260510063053 62 344 5.0 10.0 0.00 0.00 0.00 25 1018.0
20260510062542 62 355 5.0 10.0 0.00 0.00 0.00 25 1017.9
20260510062041 62 360 5.0 10.0 0.00 0.00 0.00 25 1017.9
20260510061552 62 14 5.0 10.0 0.00 0.00 0.00 25 1017.8
20260510061042 63 26 5.0 10.0 0.00 0.00 0.00 25 1017.7
20260510060544 63 26 6.0 10.0 0.00 0.00 0.00 24 1017.7
20260510060051 63 33 5.0 12.0 0.00 0.00 0.00 24 1017.7
20260510055543 63 9 5.0 12.0 0.00 0.00 0.00 24 1017.7
20260510055043 63 360 6.0 12.0 0.00 0.00 0.00 24 1017.7
20260510054549 64 5 5.0 11.0 0.00 0.00 0.00 24 1017.6
20260510054043 64 352 6.0 13.0 0.00 0.00 0.00 24 1017.6
20260510053544 64 16 7.0 13.0 0.00 0.00 0.00 23 1017.5
20260510053105 64 11 5.0 13.0 0.00 0.00 0.00 23 1017.5
20260510052544 64 328 6.0 12.0 0.00 0.00 0.00 22 1017.6
20260510052043 64 345 6.0 13.0 0.00 0.00 0.00 22 1017.6
20260510051602 65 323 7.0 13.0 0.00 0.00 0.00 22 1017.6
20260510051042 65 24 9.0 15.0 0.00 0.00 0.00 21 1017.6
20260510050542 65 351 9.0 17.0 0.00 0.00 0.00 21 1017.6
20260510050100 65 334 10.0 17.0 0.00 0.00 0.00 21 1017.6
20260510045544 66 339 8.0 13.0 0.00 0.00 0.00 21 1017.6
20260510045048 66 15 8.0 15.0 0.00 0.00 0.00 20 1017.5
20260510044601 66 328 7.0 15.0 0.00 0.00 0.00 20 1017.5
20260510044043 66 333 8.0 15.0 0.00 0.00 0.00 20 1017.4
20260510043545 66 327 6.0 10.0 0.00 0.00 0.00 19 1017.5
20260510043057 66 344 5.0 12.0 0.00 0.00 0.00 19 1017.5
20260510042542 66 329 5.0 12.0 0.00 0.00 0.00 19 1017.6
20260510042043 66 334 6.0 12.0 0.00 0.00 0.00 18 1017.6
20260510041550 66 360 5.0 13.0 0.00 0.00 0.00 18 1017.5
20260510041043 66 329 6.0 13.0 0.00 0.00 0.00 18 1017.5
20260510040544 66 360 5.0 9.0 0.00 0.00 0.00 18 1017.4
20260510040051 66 333 4.0 9.0 0.00 0.00 0.00 18 1017.3
20260510035543 67 13 5.0 9.0 0.00 0.00 0.00 18 1017.3
20260510035043 67 360 5.0 9.0 0.00 0.00 0.00 17 1017.3
20260510034549 67 9 4.0 9.0 0.00 0.00 0.00 17 1017.3
20260510034046 67 360 5.0 11.0 0.00 0.00 0.00 17 1017.2
20260510033545 67 360 4.0 11.0 0.00 0.00 0.00 16 1017.2
20260510033106 68 323 5.0 12.0 0.00 0.00 0.00 16 1017.1
20260510032546 68 355 6.0 14.0 0.00 0.00 0.00 16 1016.9
20260510032043 68 329 6.0 14.0 0.00 0.00 0.00 15 1016.9
20260510031552 68 5 6.0 13.0 0.00 0.00 0.00 15 1016.7
20260510031042 68 355 6.0 11.0 0.00 0.00 0.00 14 1016.6
20260510030544 68 351 4.0 8.0 0.00 0.00 0.00 14 1016.4
20260510030110 69 325 4.0 8.0 0.00 0.00 0.00 14 1016.2
20260510025543 69 345 4.0 8.0 0.00 0.00 0.00 14 1016.2
20260510025041 69 329 4.0 8.0 0.00 0.00 0.00 14 1016.2
20260510024543 70 322 4.0 11.0 0.00 0.00 0.00 14 1016.0
20260510024041 70 313 4.0 11.0 0.00 0.00 0.00 14 1016.0
20260510023541 70 319 4.0 8.0 0.00 0.00 0.00 14 1015.8
20260510023052 71 313 3.0 9.0 0.00 0.00 0.00 14 1015.8
20260510022541 71 313 4.0 9.0 0.00 0.00 0.00 13 1015.8
20260510022042 72 316 3.0 9.0 0.00 0.00 0.00 13 1015.7
20260510021544 72 298 4.0 11.0 0.00 0.00 0.00 13 1015.6
20260510021041 72 296 6.0 11.0 0.00 0.00 0.00 13 1015.5
20260510020541 73 300 5.0 14.0 0.00 0.00 0.00 13 1015.5
20260510020053 73 291 5.0 14.0 0.00 0.00 0.00 12 1015.5
20260510015541 74 312 5.0 15.0 0.00 0.00 0.00 12 1015.4
20260510015041 74 310 6.0 15.0 0.00 0.00 0.00 12 1015.3
20260510014553 75 345 9.0 16.0 0.00 0.00 0.00 12 1015.3
20260510014041 75 269 9.0 16.0 0.00 0.00 0.00 12 1015.2
20260510013541 75 331 9.0 17.0 0.00 0.00 0.00 11 1015.1
20260510013049 76 311 9.0 20.0 0.00 0.00 0.00 11 1015.1
20260510012542 76 262 11.0 23.0 0.00 0.00 0.00 11 1015.0
20260510012041 77 291 11.0 23.0 0.00 0.00 0.00 10 1015.1
20260510011548 77 286 9.0 24.0 0.00 0.00 0.00 10 1014.9
20260510011041 77 332 10.0 24.0 0.00 0.00 0.00 11 1014.9
20260510010541 78 311 12.0 23.0 0.00 0.00 0.00 10 1014.8
20260510010049 78 288 11.0 23.0 0.00 0.00 0.00 10 1014.8
20260510005541 78 304 10.0 23.0 0.00 0.00 0.00 10 1014.8
20260510005041 78 297 15.0 23.0 0.00 0.00 0.00 10 1014.7
20260510004553 78 321 11.0 20.0 0.00 0.00 0.00 10 1014.7
20260510004041 78 313 7.0 22.0 0.00 0.00 0.00 10 1014.8
20260510003542 78 313 10.0 24.0 0.00 0.00 0.00 10 1014.8
20260510003100 78 306 13.0 24.0 0.00 0.00 0.00 10 1014.9
20260510002541 78 321 13.0 23.0 0.00 0.00 0.00 10 1014.7
20260510002042 78 324 13.0 23.0 0.00 0.00 0.00 10 1014.7
20260510001547 79 279 11.0 24.0 0.00 0.00 0.00 10 1014.6
20260510001042 79 303 14.0 24.0 0.00 0.00 0.00 10 1014.7
20260510000543 79 320 13.0 25.0 0.00 0.00 0.00 10 1014.6
20260510000054 79 308 12.0 25.0 0.00 0.00 0.00 10 1014.6
20260509235541 79 310 11.0 19.0 0.00 0.00 0.00 10 1014.6
20260509235041 79 308 11.0 19.0 0.00 0.00 0.00 9 1014.6
20260509234558 79 286 10.0 19.0 0.00 0.00 0.00 10 1014.6
20260509234041 80 261 9.0 23.0 0.00 0.00 0.00 10 1014.6
20260509233541 80 304 12.0 23.0 0.00 0.00 0.00 10 1014.6
20260509233053 81 315 9.0 24.0 0.00 0.00 0.00 9 1014.4
20260509232542 82 279 11.0 24.0 0.00 0.00 0.00 9 1014.6
20260509232041 82 298 11.0 19.0 0.00 0.00 0.00 9 1014.6
20260509231550 82 294 8.0 18.0 0.00 0.00 0.00 9 1014.5
20260509231041 83 291 12.0 24.0 0.00 0.00 0.00 9 1014.4
20260509230545 83 286 14.0 24.0 0.00 0.00 0.00 9 1014.6
20260509230048 82 296 12.0 24.0 0.00 0.00 0.00 9 1014.5
20260509225541 82 302 7.0 20.0 0.00 0.00 0.00 9 1014.3
20260509225041 82 284 11.0 22.0 0.00 0.00 0.00 9 1014.5
20260509224548 82 291 11.0 22.0 0.00 0.00 0.00 9 1014.5
20260509224044 82 287 12.0 22.0 0.00 0.00 0.00 9 1014.6
20260509223542 82 319 11.0 20.0 0.00 0.00 0.00 9 1014.6
20260509223056 82 314 11.0 26.0 0.00 0.00 0.00 9 1014.6
20260509222541 82 309 8.0 26.0 0.00 0.00 0.00 9 1014.6
20260509222041 82 282 12.0 19.0 0.00 0.00 0.00 8 1014.7
20260509221552 82 257 7.0 13.0 0.00 0.00 0.00 10 1014.7
20260509221040 81 285 7.0 19.0 0.00 0.00 0.00 9 1014.8
20260509220543 81 309 9.0 24.0 0.00 0.00 0.00 9 1014.9
20260509220047 83 275 15.0 24.0 0.00 0.00 0.00 9 1015.2
20260509215541 83 313 6.0 21.0 0.00 0.00 0.00 9 1015.0
20260509215042 83 298 11.0 23.0 0.00 0.00 0.00 10 1015.2
20260509214548 83 290 12.0 23.0 0.00 0.00 0.00 10 1015.3
20260509214041 82 318 11.0 20.0 0.00 0.00 0.00 10 1015.2
20260509213541 81 284 8.0 20.0 0.00 0.00 0.00 11 1015.3
20260509213049 80 292 9.0 18.0 0.00 0.00 0.00 11 1015.4
20260509212543 79 269 8.0 19.0 0.00 0.00 0.00 11 1015.5
20260509212041 80 250 11.0 19.0 0.00 0.00 0.00 11 1015.6
20260509211546 81 279 9.0 19.0 0.00 0.00 0.00 11 1015.7
20260509211041 81 292 8.0 19.0 0.00 0.00 0.00 11 1015.7
20260509210543 80 341 6.0 18.0 0.00 0.00 0.00 11 1015.7
20260509210047 79 312 10.0 23.0 0.00 0.00 0.00 12 1015.8
20260509205542 79 307 11.0 23.0 0.00 0.00 0.00 11 1015.8
20260509205040 80 325 12.0 23.0 0.00 0.00 0.00 11 1015.9
20260509204549 80 253 8.0 20.0 0.00 0.00 0.00 11 1016.0
20260509204043 79 309 10.0 20.0 0.00 0.00 0.00 11 1016.0
20260509203545 79 341 13.0 20.0 0.00 0.00 0.00 12 1016.0
20260509203047 79 287 9.0 18.0 0.00 0.00 0.00 12 1016.0
20260509202543 79 315 10.0 24.0 0.00 0.00 0.00 11 1016.2
20260509202048 80 315 12.0 24.0 0.00 0.00 0.00 11 1016.2
20260509201556 81 271 9.0 19.0 0.00 0.00 0.00 10 1016.0
20260509201043 81 265 8.0 23.0 0.00 0.00 0.00 11 1016.3
20260509200543 80 268 12.0 27.0 0.00 0.00 0.00 11 1016.2
20260509200057 81 311 12.0 27.0 0.00 0.00 0.00 11 1016.4
20260509195543 82 246 9.0 18.0 0.00 0.00 0.00 10 1016.3
20260509195042 83 303 5.0 18.0 0.00 0.00 0.00 10 1016.4
20260509194549 83 296 6.0 18.0 0.00 0.00 0.00 11 1016.5
20260509194043 82 186 6.0 18.0 0.00 0.00 0.00 11 1016.6
20260509193543 81 329 6.0 18.0 0.00 0.00 0.00 12 1016.6
20260509193109 80 301 9.0 17.0 0.00 0.00 0.00 12 1016.7
20260509192542 81 325 10.0 17.0 0.00 0.00 0.00 11 1016.7
20260509192045 82 314 4.0 16.0 0.00 0.00 0.00 12 1016.8
20260509191547 83 255 8.0 15.0 0.00 0.00 0.00 12 1016.8
20260509191045 84 265 6.0 12.0 0.00 0.00 0.00 12 1016.9
20260509190544 83 286 5.0 10.0 0.00 0.00 0.00 12 1016.9
20260509190053 82 135 3.0 8.0 0.00 0.00 0.00 12 1017.0
20260509185543 82 248 1.0 10.0 0.00 0.00 0.00 12 1017.2
20260509185043 82 0 2.0 10.0 0.00 0.00 0.00 12 1017.3
20260509184604 83 180 3.0 16.0 0.00 0.00 0.00 12 1017.3
20260509184043 83 161 4.0 16.0 0.00 0.00 0.00 12 1017.3
20260509183543 83 284 4.0 10.0 0.00 0.00 0.00 12 1017.5
20260509183047 82 200 1.0 9.0 0.00 0.00 0.00 13 1017.5
20260509182547 81 26 1.0 10.0 0.00 0.00 0.00 13 1017.5
20260509182046 80 206 4.0 10.0 0.00 0.00 0.00 13 1017.7
20260509181552 79 210 5.0 13.0 0.00 0.00 0.00 13 1017.8
20260509181044 77 239 2.0 13.0 0.00 0.00 0.00 14 1018.0
20260509180543 77 346 8.0 13.0 0.00 0.00 0.00 14 1018.1
20260509180050 76 267 6.0 16.0 0.00 0.00 0.00 14 1018.1
20260509175543 76 16 4.0 16.0 0.00 0.00 0.00 14 1018.0
20260509175043 75 313 12.0 16.0 0.00 0.00 0.00 15 1018.1
20260509174547 74 27 8.0 20.0 0.00 0.00 0.00 15 1018.2
20260509174044 74 311 11.0 20.0 0.00 0.00 0.00 15 1018.1
20260509173543 74 335 7.0 18.0 0.00 0.00 0.00 15 1018.2
20260509173052 74 355 10.0 21.0 0.00 0.00 0.00 15 1018.3
20260509172543 74 328 11.0 21.0 0.00 0.00 0.00 15 1018.3
20260509172043 74 335 12.0 20.0 0.00 0.00 0.00 14 1018.3
20260509171603 74 5 10.0 17.0 0.00 0.00 0.00 15 1018.4
20260509171042 75 340 10.0 17.0 0.00 0.00 0.00 15 1018.3
20260509170543 75 341 10.0 17.0 0.00 0.00 0.00 15 1018.4
20260509170050 76 29 6.0 16.0 0.00 0.00 0.00 15 1018.4
20260509165542 76 310 6.0 16.0 0.00 0.00 0.00 15 1018.4
20260509165044 76 254 8.0 16.0 0.00 0.00 0.00 15 1018.4
20260509164554 75 292 7.0 15.0 0.00 0.00 0.00 15 1018.5
20260509164044 75 290 8.0 15.0 0.00 0.00 0.00 16 1018.4
20260509163543 75 306 8.0 15.0 0.00 0.00 0.00 16 1018.4
20260509163104 75 304 4.0 13.0 0.00 0.00 0.00 15 1018.4
20260509162544 75 331 5.0 13.0 0.00 0.00 0.00 16 1018.4
20260509162043 75 320 5.0 10.0 0.00 0.00 0.00 16 1018.2
20260509161554 74 164 2.0 6.0 0.00 0.00 0.00 18 1018.3
20260509161043 74 244 2.0 11.0 0.00 0.00 0.00 18 1018.3
20260509160544 73 325 2.0 11.0 0.00 0.00 0.00 19 1018.4
20260509160051 72 273 3.0 8.0 0.00 0.00 0.00 19 1018.4
20260509155542 72 14 2.0 8.0 0.00 0.00 0.00 19 1018.4
20260509155042 71 292 4.0 8.0 0.00 0.00 0.00 19 1018.4
20260509154553 71 239 3.0 8.0 0.00 0.00 0.00 20 1018.5
20260509154043 70 340 3.0 8.0 0.00 0.00 0.00 20 1018.4
20260509153543 70 321 3.0 7.0 0.00 0.00 0.00 20 1018.5
20260509153056 69 226 2.0 6.0 0.00 0.00 0.00 21 1018.7
20260509152548 69 308 2.0 8.0 0.00 0.00 0.00 22 1018.6
20260509152044 68 319 3.0 9.0 0.00 0.00 0.00 21 1018.7
20260509151553 68 326 3.0 9.0 0.00 0.00 0.00 22 1018.7
20260509151047 67 277 2.0 4.0 0.00 0.00 0.00 22 1018.6
20260509150543 67 0 1.0 4.0 0.00 0.00 0.00 23 1018.6
20260509150105 66 252 2.0 4.0 0.00 0.00 0.00 23 1018.4
20260509145543 65 0 2.0 4.0 0.00 0.00 0.00 23 1018.5
20260509145046 65 261 1.0 4.0 0.00 0.00 0.00 23 1018.5
20260509144655 64 0 1.0 4.0 0.00 0.00 0.00 24 1018.5
20260509144047 64 237 1.0 4.0 0.00 0.00 0.00 24 1018.6
20260509143545 64 252 0.0 5.0 0.00 0.00 0.00 25 1018.5
20260509143053 63 239 2.0 5.0 0.00 0.00 0.00 25 1018.6
20260509142548 63 246 2.0 5.0 0.00 0.00 0.00 26 1018.7
20260509142042 62 205 2.0 4.0 0.00 0.00 0.00 26 1018.7
20260509141554 62 213 0.0 4.0 0.00 0.00 0.00 26 1018.6
20260509141042 61 202 0.0 4.0 0.00 0.00 0.00 26 1018.6
20260509140542 61 0 1.0 4.0 0.00 0.00 0.00 27 1018.5
20260509140052 60 185 1.0 4.0 0.00 0.00 0.00 27 1018.5
20260509135543 59 197 1.0 4.0 0.00 0.00 0.00 29 1018.5
20260509135043 58 134 1.0 4.0 0.00 0.00 0.00 30 1018.5
20260509134552 57 134 0.0 3.0 0.00 0.00 0.00 31 1018.5
20260509134043 56 134 0.0 4.0 0.00 0.00 0.00 32 1018.4
20260509133543 56 141 0.0 4.0 0.00 0.00 0.00 33 1018.4
20260509133052 55 142 1.0 4.0 0.00 0.00 0.00 34 1018.4
20260509132543 54 0 1.0 3.0 0.00 0.00 0.00 34 1018.2
20260509132045 53 137 1.0 4.0 0.00 0.00 0.00 34 1018.2
20260509131553 53 137 1.0 4.0 0.00 0.00 0.00 34 1018.1
20260509131042 52 137 2.0 4.0 0.00 0.00 0.00 35 1018.1
20260509130542 51 134 2.0 4.0 0.00 0.00 0.00 36 1018.1
20260509125542 50 107 1.0 3.0 0.00 0.00 0.00 36 1018.1
20260509125042 50 107 1.0 3.0 0.00 0.00 0.00 36 1018.1
20260509124605 50 153 1.0 3.0 0.00 0.00 0.00 36 1018.0
20260509124044 49 153 1.0 3.0 0.00 0.00 0.00 37 1017.9
20260509123543 49 153 1.0 5.0 0.00 0.00 0.00 37 1017.9
20260509123053 49 153 2.0 5.0 0.00 0.00 0.00 36 1017.7
20260509122547 49 153 3.0 5.0 0.00 0.00 0.00 36 1017.7
20260509122047 49 153 1.0 3.0 0.00 0.00 0.00 36 1017.6
20260509121552 49 153 1.0 3.0 0.00 0.00 0.00 36 1017.5
20260509121043 49 153 1.0 5.0 0.00 0.00 0.00 36 1017.5
20260509120543 50 153 2.0 5.0 0.00 0.00 0.00 36 1017.4
20260509120104 50 153 2.0 5.0 0.00 0.00 0.00 36 1017.5
20260509115542 50 153 2.0 5.0 0.00 0.00 0.00 36 1017.5
20260509115042 50 153 2.0 5.0 0.00 0.00 0.00 35 1017.5
20260509114554 50 153 1.0 5.0 0.00 0.00 0.00 35 1017.3
20260509114043 51 153 2.0 5.0 0.00 0.00 0.00 35 1017.3
20260509113546 51 153 2.0 5.0 0.00 0.00 0.00 35 1017.2
20260509113055 51 153 2.0 5.0 0.00 0.00 0.00 35 1017.2
20260509112543 51 153 3.0 6.0 0.00 0.00 0.00 34 1017.2
20260509112043 51 96 2.0 6.0 0.00 0.00 0.00 34 1017.0
20260509111552 52 133 2.0 5.0 0.00 0.00 0.00 34 1017.0
20260509111043 52 136 2.0 4.0 0.00 0.00 0.00 34 1017.1
20260509110543 52 98 2.0 4.0 0.00 0.00 0.00 34 1017.1
20260509110053 51 88 2.0 4.0 0.00 0.00 0.00 34 1017.0
20260509105543 51 94 2.0 4.0 0.00 0.00 0.00 34 1017.1
20260509105043 51 101 2.0 8.0 0.00 0.00 0.00 34 1017.0
20260509104552 51 93 3.0 8.0 0.00 0.00 0.00 35 1016.9
20260509104042 51 98 3.0 8.0 0.00 0.00 0.00 35 1016.9
20260509103544 51 96 3.0 7.0 0.00 0.00 0.00 35 1017.0
20260509103054 51 91 3.0 6.0 0.00 0.00 0.00 35 1016.9
20260509102542 51 90 2.0 4.0 0.00 0.00 0.00 35 1016.9
20260509102044 51 99 1.0 6.0 0.00 0.00 0.00 35 1017.0
20260509101550 51 100 1.0 6.0 0.00 0.00 0.00 35 1017.0
20260509101044 51 94 2.0 6.0 0.00 0.00 0.00 35 1017.0
20260509100543 51 97 2.0 6.0 0.00 0.00 0.00 35 1017.0
20260509100055 51 94 2.0 6.0 0.00 0.00 0.00 35 1017.1